Zurück zum Katalog

STARLINK-31029

AktivKommunikationVLEO
NORAD 58712·PAYLOAD·🇺🇸 United States

Gestartet Jan 3, 2024 von Vandenberg Space Force Base

Loading…

Nächste Überflüge (nächste 24 Stunden)

TLE

AktuellSource: CelesTrak SupGP

Epoche: Sep 14, 2026, 21:59 UTC

1 58712C 24002H   26257.91645833  .00052798  00000+0  15598-2 0  2579
2 58712  53.1591  69.5215 0001198  76.5778  69.5921 15.34367438    13

Verfolge STARLINK-31029 in Echtzeit mit AllMySat

Download on the App Store